sat.trackr.live / text

‹ back to catalog

STARLINK-2478

NORAD 48135 · 2021-027AV

PAYLOAD ACTIVE UNKNOWN

§ Identity

Operator
Country
US
Launch date
2021-04-07
Launch site
AFETR
Launch vehicle
Mass (kg)
RCS (m²)

Purposes: comms

External: N2YO · Heavens-Above · Gunter

§ Orbital elements

Epoch: 2026-09-19T22:52:04.549152Z

Period
94.01 min
Inclination
53.1612°
Eccentricity
0.0001304
Mean motion
15.31690531 rev/d
Perigee alt
469.9 km
Apogee alt
471.7 km
Semi-major
6,848.9 km
B*
6.2116e-6
RAAN
343.8967°
Arg perigee
87.0233°
Mean anomaly
273.0918°
Rev number
30,224

§ Raw data

STARLINK-24781 48135U 21027AV  26262.95283043 -.00000172  00000+0  62116-5 0  99962 48135  53.1612 343.8967 0001304  87.0233 273.0918 15.31690531302247

JSON: /api/v1/satellites/48135 · /tle

For live sub-satellite position, see the globe view (requires WebGL).

§ Visibility from observer

Set your observer location to see the next 7 days of passes ≥ 10°. The values pass through the URL so the page stays shareable.

No JS? Fill the form by hand. The geolocation button needs JavaScript.